Weather History for Maputo, Mozambique

Change the Weather History Date:

Wednesday, February 20, 2013

  Actual Average Record
Temperature  
Mean Temperature 82 °F -  
Max Temperature 90 °F 84 °F 96 °F (2006)
Min Temperature 75 °F 72 °F 69 °F (2014)
Cooling Degree Days 18    
Growing Degree Days 32 (Base 50)    
Moisture  
Dew Point 72 °F    
Average Humidity 69    
Maximum Humidity 89    
Minimum Humidity 45    
Precipitation  
Precipitation 0.03 in - - ()
Sea Level Pressure  
Sea Level Pressure 29.77 in    
Wind  
Wind Speed 6 mph ()    
Max Wind Speed 20 mph    
Max Gust Speed 30 mph    
Visibility 10.2 miles    
Events      
Averages and records for this station are not official NWS values.
T = Trace of Precipitation, MM = Missing Value Source: Averaged Metar Reports

Daily Weather History Graph

Daily Weather History Graph

Search for Another Location

Airport:

Trip Planner

Search our weather history database for the weather conditions in past years. The results will help you decide how hot, cold, wet, or windy it might be!

Date:

Astronomy

Feb. 20, 2013 Rise Set
Actual Time 5:38 AM CAT 6:28 PM CAT
Civil Twilight 5:14 AM CAT 6:51 PM CAT
Nautical Twilight 4:46 AM CAT 7:19 PM CAT
Astronomical Twilight 4:18 AM CAT 7:48 PM CAT
Moon 2:32 PM CAT (2/20) 12:41 AM CAT (2/20)
Length of Visible Light 13h 37m
Length of Day
12h 50m
Waxing Gibbous, 73% of the Moon is Illuminated
Feb 20
Waxing Gibbous
Feb 25
Full
Mar 4
Last Quarter
Mar 11
New
Mar 19
First Quarter

Hourly Weather History & Observations

Time (CAT) Temp. Heat Index Dew Point Humidity Pressure Visibility Wind Dir Wind Speed Gust Speed Precip Events Conditions
2:00 AM 79 °F - 72 °F 75% 29.74 in 19 mi 2.3 mph - -   Partly Cloudy
5:00 AM 75 °F - 72 °F 89% 29.75 in 19 mi SW 2.3 mph - -   Mostly Cloudy
5:00 AM 75.2 °F - 71.6 °F 89% 29.74 in 6.2 mi SW 2.3 mph - N/A   Mostly Cloudy
6:00 AM 77.0 °F - 73.4 °F 89% 29.74 in 5.0 mi Variable 1.2 mph - N/A   Mostly Cloudy
7:00 AM 78.8 °F - 73.4 °F 83% 29.77 in 6.2 mi SW 5.8 mph - N/A   Scattered Clouds
8:00 AM 82 °F - 72 °F 66% 29.79 in 19 mi SW 4.6 mph - -   Partly Cloudy
8:00 AM 82.4 °F 88.2 °F 73.4 °F 74% 29.77 in 6.2 mi SW 4.6 mph - N/A   Scattered Clouds
9:00 AM 87.8 °F 92.6 °F 69.8 °F 55% 29.77 in 6.2 mi Variable 2.3 mph - N/A   Scattered Clouds
11:00 AM 87 °F - 73 °F 55% 29.82 in 19 mi WSW 4.6 mph - -   Mostly Cloudy
11:00 AM 86.0 °F 95.1 °F 75.2 °F 70% 29.86 in 6.2 mi NNW 11.5 mph - N/A   Mostly Cloudy
12:00 PM 87.8 °F 93.8 °F 71.6 °F 58% 29.71 in 6.2 mi ESE 6.9 mph - N/A   Mostly Cloudy
2:00 PM 90 °F - 71 °F 45% 29.68 in 19 mi East 12.7 mph - -   Partly Cloudy
2:00 PM 89.6 °F 96.2 °F 71.6 °F 55% 29.68 in 6.2 mi East 12.7 mph - N/A   Scattered Clouds
3:00 PM 89.6 °F 96.2 °F 71.6 °F 55% 29.65 in 6.2 mi East 11.5 mph - N/A   Partly Cloudy
6:00 PM 84.2 °F 88.4 °F 69.8 °F 62% 29.71 in 6.2 mi SE 10.4 mph - N/A   Mostly Cloudy
7:00 PM 84.2 °F 89.6 °F 71.6 °F 66% 29.74 in 6.2 mi SSE 13.8 mph - N/A   Mostly Cloudy
8:00 PM 83 °F - 71 °F 60% 29.81 in 19 mi South 15.0 mph - -   Partly Cloudy
10:00 PM 75.2 °F - 69.8 °F 83% 29.89 in 6.2 mi SSW 16.1 mph - N/A   Partly Cloudy
11:00 PM 75.2 °F - 66.2 °F 73% 29.92 in 6.2 mi South 19.6 mph 29.9 mph N/A   Partly Cloudy